GIA6101 WIMM-OEMA

Flight info

Callsign GIA6101
Flight time N/A
Altitude 34000
Route INANG DCT MABIX P570 POPAK/N0483F360 P570 TVM UL425 ASPUX N315 KUTVI/N0482F380 N315 SITOL DCT PUSON L883 KITUB Y511 ELONU
Aircraft A339/H-SADE1E2E3GHIJ3J5M1P2RWXY/LB2D1

Departure

Time 2026-04-22 06:14
Airport Kualanamu International Airport (WIMM)

Arrival

Time N/A
Airport Prince Mohammad Bin Abdulaziz Airport (OEMA)
Time Latitude Longitude Altitude Speed Heading
2026-04-22 05:54 3.63864 98.87882 41 ft 0 kts 230°
2026-04-22 06:02 3.63865 98.87883 40 ft 1 kts 230°
2026-04-22 06:02 3.63867 98.87885 40 ft 2 kts 230°
2026-04-22 06:03 3.63877 98.87897 40 ft 2 kts 230°
2026-04-22 06:03 3.63887 98.87908 40 ft 2 kts 230°
2026-04-22 06:03 3.63896 98.87920 40 ft 2 kts 248°
2026-04-22 06:03 3.63899 98.87935 40 ft 2 kts 273°
2026-04-22 06:04 3.63896 98.87949 40 ft 2 kts 296°
2026-04-22 06:04 3.63890 98.87959 40 ft 0 kts 314°
2026-04-22 06:04 3.63886 98.87963 40 ft 0 kts 315°
2026-04-22 06:06 3.63886 98.87962 40 ft 0 kts 315°
2026-04-22 06:07 3.63900 98.87961 40 ft 7 kts
2026-04-22 06:07 3.63957 98.88002 40 ft 14 kts 44°
2026-04-22 06:07 3.64049 98.88090 43 ft 20 kts 45°
2026-04-22 06:07 3.64147 98.88140 46 ft 11 kts 331°
2026-04-22 06:08 3.64192 98.88087 45 ft 10 kts 321°
2026-04-22 06:08 3.64273 98.88010 44 ft 18 kts 315°
2026-04-22 06:08 3.64256 98.87914 40 ft 18 kts 222°
2026-04-22 06:08 3.64149 98.87809 37 ft 23 kts 225°
2026-04-22 06:09 3.64032 98.87692 37 ft 25 kts 225°
2026-04-22 06:09 3.63914 98.87575 37 ft 21 kts 225°
2026-04-22 06:09 3.63819 98.87483 44 ft 15 kts 224°
2026-04-22 06:09 3.63746 98.87411 47 ft 13 kts 224°
2026-04-22 06:10 3.63683 98.87348 49 ft 13 kts 225°
2026-04-22 06:10 3.63610 98.87260 54 ft 14 kts 259°
2026-04-22 06:10 3.63645 98.87196 54 ft 6 kts 295°
2026-04-22 06:10 3.63620 98.87141 54 ft 12 kts 210°
2026-04-22 06:11 3.63527 98.87066 56 ft 21 kts 226°
2026-04-22 06:11 3.63406 98.86942 54 ft 25 kts 226°
2026-04-22 06:11 3.63267 98.86804 48 ft 26 kts 225°
2026-04-22 06:11 3.63130 98.86665 43 ft 28 kts 226°
2026-04-22 06:12 3.62975 98.86510 41 ft 34 kts 225°
2026-04-22 06:12 3.62826 98.86360 44 ft 28 kts 224°
2026-04-22 06:12 3.62684 98.86218 50 ft 27 kts 225°
2026-04-22 06:12 3.62558 98.86092 56 ft 21 kts 225°
2026-04-22 06:13 3.62522 98.85968 59 ft 18 kts 291°
2026-04-22 06:13 3.62620 98.85911 57 ft 17 kts 18°
2026-04-22 06:13 3.62720 98.85994 51 ft 22 kts 43°
2026-04-22 06:13 3.62979 98.86256 41 ft 83 kts 43°
2026-04-22 06:14 3.63522 98.86787 53 ft 133 kts 45°
2026-04-22 06:14 3.64293 98.87558 48 ft 176 kts 43°
2026-04-22 06:14 3.65165 98.88418 584 ft 175 kts 42°
2026-04-22 06:14 3.66061 98.89207 1239 ft 170 kts 28°
2026-04-22 06:15 3.67159 98.89497 1757 ft 168 kts 351°
2026-04-22 06:15 3.68160 98.88912 1949 ft 177 kts 306°
2026-04-22 06:15 3.68606 98.88201 2081 ft 184 kts 303°
2026-04-22 06:15 3.69508 98.86690 2354 ft 197 kts 306°
2026-04-22 06:16 3.70306 98.85520 2567 ft 207 kts 308°
2026-04-22 06:16 3.71187 98.84340 2782 ft 218 kts 310°
2026-04-22 06:16 3.71816 98.83533 2957 ft 225 kts 310°
2026-04-22 06:16 3.73183 98.81833 3283 ft 242 kts 311°
2026-04-22 06:17 3.74280 98.80492 3530 ft 255 kts 311°
2026-04-22 06:17 3.75394 98.79088 3869 ft 264 kts 303°
2026-04-22 06:17 3.75921 98.77335 4320 ft 272 kts 269°
2026-04-22 06:17 3.75629 98.75454 4887 ft 273 kts 261°
2026-04-22 06:18 3.75241 98.73577 5409 ft 274 kts 261°
2026-04-22 06:18 3.74873 98.71718 5904 ft 276 kts 261°
2026-04-22 06:18 3.74517 98.69823 6407 ft 277 kts 262°
2026-04-22 06:18 3.74177 98.67930 6899 ft 278 kts 262°
2026-04-22 06:19 3.73843 98.66022 7385 ft 279 kts 262°
2026-04-22 06:19 3.73513 98.64110 7868 ft 280 kts 262°
2026-04-22 06:19 3.73185 98.62188 8348 ft 281 kts 262°
2026-04-22 06:19 3.72858 98.60253 8828 ft 283 kts 262°
2026-04-22 06:20 3.72531 98.58318 9302 ft 284 kts 262°
2026-04-22 06:20 3.72204 98.56376 9772 ft 285 kts 262°
2026-04-22 06:20 3.71873 98.54408 10226 ft 288 kts 262°
2026-04-22 06:20 3.71536 98.52399 10455 ft 298 kts 262°
2026-04-22 06:21 3.71187 98.50320 10664 ft 310 kts 261°
2026-04-22 06:21 3.70825 98.48167 10873 ft 321 kts 261°
2026-04-22 06:21 3.70451 98.45935 11078 ft 332 kts 261°
2026-04-22 06:21 3.70061 98.43613 11283 ft 343 kts 261°
2026-04-22 06:22 3.69658 98.41216 11484 ft 354 kts 261°
2026-04-22 06:22 3.69247 98.38768 11680 ft 364 kts 261°
2026-04-22 06:22 3.68819 98.36215 11895 ft 374 kts 261°
2026-04-22 06:22 3.68386 98.33643 12274 ft 379 kts 261°
2026-04-22 06:23 3.67949 98.31043 12752 ft 380 kts 261°
2026-04-22 06:23 3.67508 98.28421 13220 ft 383 kts 261°
2026-04-22 06:23 3.67067 98.25795 13673 ft 385 kts 261°
2026-04-22 06:23 3.66625 98.23170 14120 ft 388 kts 261°
2026-04-22 06:24 3.65726 98.17829 15020 ft 393 kts 261°
2026-04-22 06:24 3.65268 98.15107 15475 ft 396 kts 260°
2026-04-22 06:24 3.64814 98.12414 15911 ft 398 kts 260°
2026-04-22 06:25 3.64350 98.09654 16352 ft 401 kts 260°
2026-04-22 06:25 3.63888 98.06911 16789 ft 404 kts 260°
2026-04-22 06:25 3.63422 98.04144 17228 ft 406 kts 260°
2026-04-22 06:25 3.62944 98.01311 17666 ft 409 kts 260°
2026-04-22 06:26 3.62474 97.98522 18094 ft 412 kts 260°
2026-04-22 06:26 3.61999 97.95703 18521 ft 415 kts 260°
2026-04-22 06:26 3.61515 97.92831 18949 ft 417 kts 260°
2026-04-22 06:26 3.61031 97.89964 19374 ft 420 kts 260°
2026-04-22 06:27 3.60549 97.87103 19781 ft 422 kts 260°
2026-04-22 06:27 3.60054 97.84169 20186 ft 425 kts 260°
2026-04-22 06:27 3.59564 97.81266 20577 ft 428 kts 260°
2026-04-22 06:27 3.59067 97.78322 20966 ft 431 kts 260°
2026-04-22 06:28 3.58569 97.75369 21353 ft 433 kts 260°
2026-04-22 06:28 3.58069 97.72407 21724 ft 435 kts 260°
2026-04-22 06:28 3.57565 97.69424 22082 ft 438 kts 260°
2026-04-22 06:28 3.57054 97.66399 22435 ft 440 kts 260°
2026-04-22 06:29 3.56546 97.63393 22776 ft 443 kts 260°
2026-04-22 06:29 3.56027 97.60322 23115 ft 445 kts 260°
2026-04-22 06:29 3.55516 97.57299 23441 ft 447 kts 260°
2026-04-22 06:29 3.54997 97.54230 23759 ft 450 kts 260°
2026-04-22 06:30 3.54474 97.51135 24072 ft 452 kts 259°
2026-04-22 06:30 3.53949 97.48027 24385 ft 454 kts 259°
2026-04-22 06:30 3.53423 97.44921 24685 ft 456 kts 259°
2026-04-22 06:30 3.52891 97.41773 24976 ft 458 kts 259°
2026-04-22 06:31 3.52365 97.38668 25257 ft 460 kts 259°
2026-04-22 06:31 3.51827 97.35487 25532 ft 462 kts 259°
2026-04-22 06:31 3.51287 97.32297 25812 ft 464 kts 259°
2026-04-22 06:31 3.50749 97.29121 26079 ft 466 kts 259°
2026-04-22 06:32 3.50210 97.25935 26341 ft 468 kts 259°
2026-04-22 06:32 3.49669 97.22744 26596 ft 470 kts 259°
2026-04-22 06:32 3.49117 97.19482 26848 ft 472 kts 259°
2026-04-22 06:32 3.48571 97.16265 27102 ft 473 kts 259°
2026-04-22 06:33 3.48022 97.13032 27443 ft 472 kts 260°
2026-04-22 06:33 3.47477 97.09821 27847 ft 470 kts 260°
2026-04-22 06:33 3.46929 97.06596 28230 ft 468 kts 260°
2026-04-22 06:33 3.46387 97.03404 28573 ft 467 kts 260°
2026-04-22 06:34 3.45844 97.00201 28908 ft 466 kts 260°
2026-04-22 06:34 3.45304 96.97022 29230 ft 465 kts 260°
2026-04-22 06:34 3.44759 96.93813 29529 ft 465 kts 261°
2026-04-22 06:34 3.44224 96.90658 29808 ft 464 kts 260°
2026-04-22 06:35 3.43686 96.87486 30088 ft 464 kts 260°
2026-04-22 06:35 3.43150 96.84325 30376 ft 463 kts 261°
2026-04-22 06:35 3.42606 96.81123 30664 ft 463 kts 260°
2026-04-22 06:35 3.42068 96.77955 30933 ft 462 kts 260°
2026-04-22 06:36 3.41535 96.74822 31180 ft 462 kts 260°
2026-04-22 06:36 3.40993 96.71632 31441 ft 461 kts 260°
2026-04-22 06:36 3.40456 96.68475 31699 ft 461 kts 260°
2026-04-22 06:36 3.39922 96.65337 31940 ft 460 kts 260°
2026-04-22 06:37 3.39383 96.62170 32165 ft 460 kts 260°
2026-04-22 06:37 3.38849 96.59036 32345 ft 461 kts 260°
2026-04-22 06:37 3.38310 96.55874 32519 ft 462 kts 260°
2026-04-22 06:37 3.37766 96.52679 32687 ft 463 kts 260°
2026-04-22 06:38 3.37262 96.49534 32853 ft 464 kts 262°
2026-04-22 06:38 3.36899 96.46285 33027 ft 464 kts 265°
2026-04-22 06:38 3.36678 96.43066 33182 ft 466 kts 266°
2026-04-22 06:38 3.36483 96.39867 33317 ft 467 kts 266°
2026-04-22 06:39 3.36272 96.36607 33462 ft 468 kts 266°
2026-04-22 06:39 3.36059 96.33360 33631 ft 468 kts 266°
2026-04-22 06:39 3.35850 96.30134 33804 ft 469 kts 266°
2026-04-22 06:39 3.35639 96.26854 33958 ft 469 kts 266°
2026-04-22 06:40 3.35432 96.23610 33979 ft 470 kts 266°
2026-04-22 06:40 3.35018 96.17086 33987 ft 470 kts 266°
2026-04-22 06:41 3.34608 96.10587 33989 ft 470 kts 266°
2026-04-22 06:41 3.34197 96.04080 33990 ft 470 kts 266°
2026-04-22 06:42 3.33784 95.97544 33990 ft 470 kts 266°
2026-04-22 06:42 3.33372 95.91040 33990 ft 470 kts 266°
2026-04-22 06:43 3.32958 95.84497 33990 ft 470 kts 266°
2026-04-22 06:43 3.32546 95.78005 33990 ft 470 kts 266°
2026-04-22 06:44 3.32133 95.71488 33990 ft 470 kts 266°
2026-04-22 06:44 3.31719 95.64977 33990 ft 470 kts 266°
2026-04-22 06:45 3.31305 95.58474 33990 ft 470 kts 266°
2026-04-22 06:45 3.30888 95.51935 33990 ft 470 kts 266°
2026-04-22 06:46 3.30473 95.45418 33990 ft 470 kts 266°
2026-04-22 06:46 3.30057 95.38895 33990 ft 470 kts 266°
2026-04-22 06:47 3.29642 95.32406 33990 ft 470 kts 266°
2026-04-22 06:47 3.29227 95.25898 33990 ft 470 kts 266°
2026-04-22 06:48 3.28808 95.19353 33990 ft 470 kts 266°
2026-04-22 06:48 3.28391 95.12822 33990 ft 470 kts 266°
2026-04-22 06:49 3.27976 95.06319 33990 ft 470 kts 266°
2026-04-22 06:49 3.27562 94.99830 33990 ft 470 kts 266°
2026-04-22 06:50 3.27159 94.93269 33989 ft 470 kts 268°
2026-04-22 06:50 3.27227 94.86776 33990 ft 470 kts 274°
2026-04-22 06:51 3.27997 94.80265 33990 ft 470 kts 280°
2026-04-22 06:51 3.29439 94.73888 33991 ft 470 kts 284°
2026-04-22 06:52 3.31096 94.67609 33990 ft 470 kts 285°
2026-04-22 06:52 3.32773 94.61258 33990 ft 470 kts 284°
2026-04-22 06:53 3.34425 94.54967 33990 ft 470 kts 284°
2026-04-22 06:53 3.36089 94.48621 33990 ft 470 kts 284°
2026-04-22 06:54 3.37741 94.42310 33990 ft 470 kts 284°
2026-04-22 06:54 3.39390 94.36011 33990 ft 470 kts 284°
2026-04-22 06:55 3.41048 94.29672 33990 ft 470 kts 284°
2026-04-22 06:55 3.42693 94.23380 33990 ft 470 kts 284°
2026-04-22 06:56 3.44349 94.17047 33990 ft 470 kts 284°
2026-04-22 06:56 3.45999 94.10735 33990 ft 470 kts 284°
2026-04-22 06:57 3.47647 94.04427 33990 ft 470 kts 284°
2026-04-22 06:57 3.49294 93.98121 33990 ft 470 kts 284°
2026-04-22 06:58 3.50944 93.91801 33990 ft 470 kts 284°
2026-04-22 06:58 3.52603 93.85451 33990 ft 470 kts 284°
2026-04-22 06:59 3.54245 93.79159 33990 ft 470 kts 284°
2026-04-22 06:59 3.55895 93.72835 33990 ft 470 kts 284°
2026-04-22 07:00 3.57543 93.66517 33990 ft 470 kts 284°
2026-04-22 07:00 3.59194 93.60183 33990 ft 470 kts 284°
2026-04-22 07:01 3.60848 93.53838 33990 ft 470 kts 284°
2026-04-22 07:01 3.62497 93.47510 33990 ft 470 kts 284°
2026-04-22 07:02 3.64142 93.41195 33990 ft 470 kts 284°
2026-04-22 07:02 3.65790 93.34868 33990 ft 470 kts 284°
2026-04-22 07:03 3.67433 93.28557 33990 ft 470 kts 284°
2026-04-22 07:03 3.69088 93.22199 33990 ft 470 kts 284°
2026-04-22 07:04 3.70721 93.15924 33990 ft 470 kts 284°
2026-04-22 07:04 3.72371 93.09580 33990 ft 470 kts 284°
2026-04-22 07:05 3.74016 93.03257 33990 ft 470 kts 284°
2026-04-22 07:05 3.75663 92.96923 33990 ft 470 kts 284°
2026-04-22 07:06 3.77297 92.90635 33990 ft 470 kts 284°
2026-04-22 07:06 3.78945 92.84292 33990 ft 470 kts 284°
2026-04-22 07:07 3.80588 92.77966 33990 ft 470 kts 284°
2026-04-22 07:07 3.82228 92.71649 33990 ft 470 kts 284°
2026-04-22 07:08 3.83872 92.65313 33990 ft 470 kts 284°
2026-04-22 07:08 3.85505 92.59019 33990 ft 470 kts 284°
2026-04-22 07:09 3.87144 92.52700 33990 ft 470 kts 284°
2026-04-22 07:09 3.88787 92.46365 33990 ft 470 kts 284°
2026-04-22 07:10 3.90433 92.40015 33990 ft 470 kts 284°
2026-04-22 07:10 3.92064 92.33722 33990 ft 470 kts 284°
2026-04-22 07:11 3.93712 92.27361 33990 ft 470 kts 284°
2026-04-22 07:11 3.95340 92.21077 33990 ft 470 kts 284°
2026-04-22 07:12 3.96985 92.14725 33990 ft 470 kts 284°
2026-04-22 07:12 3.98623 92.08400 33990 ft 470 kts 284°
2026-04-22 07:13 4.00254 92.02096 33990 ft 470 kts 284°
2026-04-22 07:13 4.01876 91.95750 33990 ft 470 kts 284°
2026-04-22 07:14 4.03460 91.89438 33990 ft 470 kts 284°
2026-04-22 07:14 4.05062 91.83062 33990 ft 470 kts 284°
2026-04-22 07:15 4.06651 91.76746 33990 ft 470 kts 284°
2026-04-22 07:15 4.08250 91.70390 33990 ft 470 kts 284°
2026-04-22 07:16 4.09838 91.64079 33990 ft 470 kts 284°
2026-04-22 07:16 4.11443 91.57701 33990 ft 470 kts 284°
2026-04-22 07:17 4.13032 91.51382 33990 ft 470 kts 284°
2026-04-22 07:17 4.14634 91.45009 33990 ft 470 kts 284°
2026-04-22 07:18 4.16235 91.38642 33990 ft 470 kts 284°
2026-04-22 07:18 4.17816 91.32346 33990 ft 470 kts 284°
2026-04-22 07:19 4.19414 91.25980 33990 ft 470 kts 284°
2026-04-22 07:19 4.21004 91.19650 33990 ft 470 kts 284°
2026-04-22 07:20 4.22594 91.13316 33990 ft 470 kts 284°
2026-04-22 07:20 4.24185 91.06974 33990 ft 470 kts 284°
2026-04-22 07:21 4.25776 91.00629 33990 ft 470 kts 284°
2026-04-22 07:21 4.27369 90.94276 33990 ft 470 kts 284°
2026-04-22 07:22 4.28960 90.87925 33990 ft 471 kts 284°
2026-04-22 07:22 4.30548 90.81587 33990 ft 471 kts 284°
2026-04-22 07:23 4.32145 90.75208 33990 ft 471 kts 284°
2026-04-22 07:23 4.33722 90.68906 33990 ft 471 kts 284°
2026-04-22 07:24 4.35319 90.62526 33990 ft 470 kts 284°
2026-04-22 07:24 4.36903 90.56194 33990 ft 470 kts 284°
2026-04-22 07:25 4.38487 90.49858 33990 ft 470 kts 284°
2026-04-22 07:25 4.40083 90.43477 33990 ft 470 kts 284°
2026-04-22 07:26 4.41700 90.37166 33990 ft 470 kts 285°
2026-04-22 07:26 4.43472 90.30879 33990 ft 470 kts 285°
2026-04-22 07:27 4.45264 90.24552 33990 ft 470 kts 285°
2026-04-22 07:27 4.47033 90.18269 33990 ft 470 kts 285°
2026-04-22 07:28 4.49674 90.08855 33990 ft 470 kts 285°
2026-04-22 07:28 4.51440 90.02553 33990 ft 470 kts 285°
2026-04-22 07:29 4.53209 89.96233 33990 ft 470 kts 285°
2026-04-22 07:29 4.54971 89.89938 33990 ft 470 kts 285°
2026-04-22 07:30 4.56740 89.83614 33990 ft 470 kts 285°
2026-04-22 07:30 4.58502 89.77314 33990 ft 470 kts 285°
2026-04-22 07:31 4.60264 89.71013 33990 ft 470 kts 285°
2026-04-22 07:31 4.62021 89.64723 33990 ft 470 kts 285°
2026-04-22 07:32 4.63783 89.58418 33991 ft 471 kts 285°
2026-04-22 07:32 4.65549 89.52093 34317 ft 471 kts 285°
2026-04-22 07:33 4.66428 89.48947 34570 ft 469 kts 285°
2026-04-22 07:33 4.67299 89.45827 34789 ft 468 kts 285°
2026-04-22 07:33 4.68173 89.42696 34982 ft 468 kts 285°
2026-04-22 07:33 4.69048 89.39562 35164 ft 468 kts 285°
2026-04-22 07:34 4.69927 89.36410 35341 ft 467 kts 285°
2026-04-22 07:34 4.70790 89.33316 35512 ft 467 kts 285°
2026-04-22 07:34 4.71671 89.30157 35684 ft 467 kts 285°
2026-04-22 07:34 4.72541 89.27038 35852 ft 466 kts 285°
2026-04-22 07:35 4.73411 89.23919 35978 ft 466 kts 285°
2026-04-22 07:35 4.74274 89.20823 35984 ft 466 kts 285°
2026-04-22 07:35 4.76014 89.14578 35988 ft 466 kts 285°
2026-04-22 07:36 4.77753 89.08337 35989 ft 466 kts 285°
2026-04-22 07:36 4.79495 89.02080 35989 ft 466 kts 285°
2026-04-22 07:37 4.81234 88.95833 35989 ft 466 kts 285°
2026-04-22 07:37 4.82970 88.89593 35989 ft 466 kts 285°
2026-04-22 07:38 4.84419 88.84384 35989 ft 466 kts 285°